Погода в Полтавке

Погода в Полтавке : погода сейчас, прогноз погоды и архив. Всё, что Вы хотите узнать о погоде в Полтавке!

Хотите узнать прогноз погоды в Полтавке? Тогда Вам сюда: Погода в Полтавке

Поиск расширенной информации на нашем сайте:

Другие новости

Новости СМИ2

Главная страница сайта

Новости сайта

03.07.2017

Напоминаем, что на нашем специализированном сайте Метеоцентр.Азия вы можете получить высокодетализированные автоматические прогнозы погоды по пунктам России, СНГ и мира в авиационном формате (включающие направление и скорость ветра, видимость, явления погоды, количество и форму облачности, нижнюю и верхнюю границу облачности).

Рекомендуем: Вывеска светящаяся цена агентство наружной рекламы цены.

Погода в Полтавке - сегодня

Время (UTC), дата Ветер
(°,м/с) 
Видим.   Явления Облачность Т
(°С)
Тd
(°С)
f(%) Тe
(°С)
Pmin
(гПа)
dP
(гПа)
Po
(мм)
O2
(г/м3)
Тmin Tmax R s Состояние
почвы
18 20.07.17 320 (СЗ) 10 км    8/4 600 м кучево-дожд., средняя, верхняя 
[Cb calv|Ac trans|Ci sp]
+13.7 +12.6 93 +20  1012.5  0.2  748  285           
21 20.07.17 240 (ЮЗ) 10 км    10/3 600 м кучево-дожд., средняя, верхняя 
[Cb calv|Ac trans|Ci sp]
+11.4 +10.8 96 +15  1012.6  748  287           
00 21.07.17 290 (З) 4000 м  дымка  5/3 600 м кучево-дожд., средняя, верхняя 
[Cb calv|Ac trans|Ci sp]
+12.1 +11.8 98 +17  1012.8  0.3  749  287           
03 21.07.17 290 (З) 20000 м    9/0 средняя, верхняя 
[Ac und|Ci sp]
+19.2 +15.8 81 +31  1012.8  0.4  749  279  +11.2         
06 21.07.17 320 (СЗ) 20000 м    9/3 600 м кучево-дожд., средняя, верхняя 
[Cb calv|Ac trans|Ci sp]
+22.7 +15.8 65 +33  1012.7  749  275           
09 21.07.17 340 (С) 2{11}  4000 м  гроза, ливневой дождь  10/6 600 м кучево-дожд., средняя, верхняя 
[Cb cap|Ac trans|Ci ing]
+19.4 +13.3 68 +26  1012.6  -0.3  749  279           
12 21.07.17 040 (СВ) 20000 м  гроза без осадков{ливн. осадки}  8/5 600 м кучево-дожд., средняя, верхняя 
[Cb cap|Ac trans|Ci ing]
+21.7 +12 54 +26  1012.3  -0.1  749  277           
15 21.07.17 тихо ()   20000 м  {гроза}  8/3 600 м кучево-дожд., верхняя 
[Cb calv|Ci sp]
+20.9 +14.3 66 +28  1012.5  0.1  749  277    +25.3  0.3     
18 21.07.17 200 (Ю) 10 км  {гроза}  ясно 
+14.4 +13.7 96 +23  1013.4  0.6  749  284           
21 21.07.17 тихо ()   10 км    ясно 
+12.9 +12.6 98 +18  1013.1  -0.4  749  286           
00 22.07.17 330 (СЗ) 4000 м  дымка  ясно 
+13 +12.8 99 +19  1013.6  0.5  749  286           
03 22.07.17 030 (СВ) 20000 м    3/0 верхняя 
[Ci fib]
+21.1 +14.3 65 +29  1013.7  0.5  749  277  +12.3         
06 22.07.17 010 (С) 20000 м    6/6 1000 м 
[Cu med, cong]
+24.4 +14.8 55 +33  1013.2  -0.3  749  274           
09 22.07.17 340 (С) 20000 м    6/6 1000 м 
[Cu med, cong]
+25.5 +13.3 47 +31  1012.7  -0.5  749  273           
12 22.07.17 320 (СЗ) 20000 м    4/4 600 м 
[Cu med, cong]
+25.9 +13.1 45 +32  1012  -0.6  748  273           
15 22.07.17 060 (СВ) 20000 м    3/0 средняя, верхняя 
[Ac trans|Ci sp]
+22.4 +14.2 60 +30  1012.1  -0.1  748  276    +26.4       
18 22.07.17 тихо ()   10 км    ясно 
+15 +13.4 90 +21  1012.3  -0.2  748  283           
21 22.07.17 тихо ()   10 км    ясно 
+13 +12.4 96 +18  1011.6  -0.8  748  285           
00 23.07.17 тихо ()   20000 м    3/0 верхняя 
[Ci sp]
+12.1 +11.8 98 +16  1011.6  748  286           
03 23.07.17 170 (Ю) 20000 м    9/0 средняя, верхняя 
[Ac und|Ci sp]
+22.1 +14.7 63 +30  1011.1  748  276  +11.2         
06 23.07.17 220 (ЮЗ) 20000 м    9/3 600 м кучево-дожд., средняя, верхняя 
[Cb calv|Ac trans|Ci sp]
+26.6 +13.3 44 +33  1010.1  -0.8  747  272           
09 23.07.17 130 (ЮВ) 20000 м    9/4 600 м кучево-дожд., средняя, верхняя 
[Cb calv|Ac trans|Ci sp]
+26.9 +12.9 42 +32  1008.8  -1.2  746  271           
12 23.07.17 160 (Ю) 20000 м    9/4 600 м кучево-дожд., средняя, верхняя 
[Cb calv|Ac trans|Ci sp]
+28.4 +13.1 39 +34  1007.2  -1.5  745  269           
15 23.07.17 120 (ЮВ) 20000 м    9/5 600 м кучево-дожд., средняя 
[Cb calv|Ac und]
+24.3 +14.9 56 +33  1006  -1.4  744  272    +28.4       
18 23.07.17 150 (ЮВ) 5{10}  10 км  гроза без осадков{ливн. осадки}  10/8 600 м кучево-дожд., средняя 
[Cb cap|Ac As]
+21.9 +15.5 67 +32  1003.3  -2.8  742  273           
Время (UTC), дата Ветер
(°,м/с) 
Видим.   Явления Облачность Т
(°С)
Тd
(°С)
f(%) Тe
(°С)
Pmin
(гПа)
dP
(гПа)
Po
(мм)
O2
(г/м3)
Тmin Tmax R s Состояние
почвы

Для получения пояснительной информации подведите курсор к названию столбца.

ПОГОДА в Полтавке - архив

Всё, что Вы хотите узнать о погоде в Полтавке - удобно и подробно!

Выберите нужную дату (начиная с 1 января 2015* года) и нажмите кнопку "Найти".
Будут отображены архивные сводки погоды по пункту Полтавка, начиная с указанной даты.


Отображать данные в формате CSV (для использования в таблицах Excel)


Внимание! Наш архив погоды предназначен исключительно для личного некоммерческого использования в познавательных целях. Если Вам необходимы официальные справки о состоянии погоды (для производственных, юридических, коммерческих и т.п. целей), обращайтесь в органы Росгидромета.

*Примечание: данная дата относится к архиву по метеостанциям СССР (Россия, СНГ, Балтия).
Архив по метеостанциям Зарубежной Европы и Азии (кроме Китая) хранится 10 дней, по другим регионам земного шара (Китай, Африка, Америка, Австралия, Океания) - 1 день.

Полтавка - район местоположения метеостанции


Название, широта, долгота, высота метеостанции:
Полтавка 54.4°ш. 71.8°д. 125 м над ур. моря [Российская Федерация]

Дополнительная информация

В oтличие oт бoльшинства пoгoдных сайтoв мы публикуем пoдрoбную метеoинфoрмацию в детальнoм прoфессиoнальнoм фoрмате.

Характеристики температуры и влажнoсти вoздуха измеряются на высoте 2 м в тени вдали oт зданий и деревьев.
Скoрoсть ветра измеряется на высoте 10 м (на урoвне рoста челoвека скoрoсть ветра ниже в 1.5-2 раза). Если метеoстанция нахoдится в гoрoде или в лесу, тo скoрoсть ветра занижена на 2-4 м/с пo сравнению с oткрытым местoм. Скoрoсть ветра над акватoриями крупных рек и oзёр, а также на вершинах хoлмoв на 2-5 м/с выше, чем в oбычных услoвиях.
Атмoсфернoе давление в разных тoчках местнoсти мoжет значительнo oтличаться oт давления на метеoстанции, в зависимoсти oт услoвий рельефа (при пoдъёме на 10 м давление пoнижается примернo на 1 мм рт.ст.).